When you browse on this site, cookies collect data to enhance your experience and personalize the content and advertising you see.
Visit our Privacy Policy to learn more. By continuing to use the site, you agree to this use of cookies and data.
  • In Romania
  • List of Countries
  • For 7 days
  • Water Temperature
  • Satellite Maps
  • Weather Map
  • Weather Widgets
  • user-avatar
    Login

    Hourly Weather Gorshkovo

    Today, 17 July, Wednesday

    Time Temperature Precipitation Wind Pressure Humidity
    00:00 +16°C° 0 mm 1 mps 737 mmHg 86%
    01:00 +16°C° 0 mm 1 mps 736 mmHg 86%
    02:00 +15°C° 0 mm 1 mps 736 mmHg 86%
    03:00 +15°C° 0 mm 1 mps 737 mmHg 89%
    04:00 +16°C° 0 mm 1 mps 737 mmHg 89%
    05:00 +16°C° 0 mm 2 mps 737 mmHg 89%
    06:00 +16°C° 0 mm 2 mps 737 mmHg 89%
    07:00 +16°C° 0 mm 1 mps 737 mmHg 89%
    08:00 +16°C° 0 mm 1 mps 736 mmHg 89%
    09:00 +16°C° 0 mm 0 mps 736 mmHg 89%
    10:00 +16°C° 0.1 mm 0 mps 736 mmHg 88%
    11:00 +16°C° 0.1 mm 0 mps 736 mmHg 88%
    12:00 +18°C° 0.1 mm 1 mps 736 mmHg 88%
    13:00 +19°C° 0 mm 1 mps 736 mmHg 86%
    14:00 +18°C° 0 mm 2 mps 735 mmHg 83%
    15:00 +19°C° 0 mm 2 mps 735 mmHg 80%
    16:00 +19°C° 0.4 mm 2 mps 735 mmHg 80%
    17:00 +20°C° 0.4 mm 2 mps 735 mmHg 81%
    18:00 +20°C° 0.4 mm 2 mps 734 mmHg 81%
    19:00 +19°C° 0.5 mm 2 mps 734 mmHg 84%
    20:00 +17°C° 0.5 mm 2 mps 734 mmHg 87%
    21:00 +16°C° 0.5 mm 2 mps 734 mmHg 91%
    22:00 +16°C° 0 mm 1 mps 734 mmHg 91%
    23:00 +15°C° 0 mm 1 mps 733 mmHg 91%

    Tomorrow, 18 July, Thursday

    Time Temperature Precipitation Wind Pressure Humidity
    00:00 +15°C° 0 mm 1 mps 733 mmHg 91%
    01:00 +14°C° 0 mm 1 mps 733 mmHg 92%
    02:00 +14°C° 0 mm 1 mps 733 mmHg 92%
    03:00 +14°C° 0 mm 1 mps 733 mmHg 92%
    04:00 +14°C° 0.2 mm 2 mps 733 mmHg 93%
    05:00 +14°C° 0.2 mm 2 mps 733 mmHg 94%
    06:00 +15°C° 0.2 mm 2 mps 733 mmHg 95%
    07:00 +16°C° 0.1 mm 2 mps 733 mmHg 91%
    08:00 +17°C° 0.1 mm 3 mps 733 mmHg 88%
    09:00 +18°C° 0.1 mm 4 mps 734 mmHg 84%
    10:00 +19°C° 0.1 mm 4 mps 734 mmHg 78%
    11:00 +20°C° 0.1 mm 5 mps 734 mmHg 72%
    12:00 +21°C° 0.1 mm 5 mps 734 mmHg 66%
    13:00 +21°C° 0.1 mm 5 mps 734 mmHg 66%
    14:00 +21°C° 0.1 mm 6 mps 734 mmHg 66%
    15:00 +22°C° 0.1 mm 6 mps 734 mmHg 65%
    16:00 +21°C° 0.3 mm 5 mps 734 mmHg 69%
    17:00 +20°C° 0.3 mm 5 mps 734 mmHg 73%
    18:00 +20°C° 0.3 mm 4 mps 735 mmHg 77%
    19:00 +18°C° 0.1 mm 4 mps 735 mmHg 81%
    20:00 +17°C° 0.1 mm 4 mps 735 mmHg 84%
    21:00 +16°C° 0.1 mm 3 mps 735 mmHg 88%
    22:00 +14°C° 0 mm 3 mps 735 mmHg 90%
    23:00 +13°C° 0 mm 3 mps 735 mmHg 91%

    Day after tomorrow, 19 July, Friday

    Time Temperature Precipitation Wind Pressure Humidity
    00:00 +13°C° 0 mm 3 mps 735 mmHg 93%
    01:00 +12°C° 0 mm 3 mps 735 mmHg 94%
    02:00 +12°C° 0 mm 3 mps 735 mmHg 95%
    03:00 +12°C° 0 mm 3 mps 735 mmHg 96%
    04:00 +12°C° 0 mm 3 mps 735 mmHg 96%
    05:00 +12°C° 0 mm 4 mps 735 mmHg 95%
    06:00 +13°C° 0 mm 4 mps 735 mmHg 95%
    07:00 +13°C° 0 mm 4 mps 735 mmHg 94%
    08:00 +14°C° 0 mm 5 mps 736 mmHg 93%
    09:00 +14°C° 0 mm 5 mps 736 mmHg 91%
    10:00 +15°C° 0.1 mm 5 mps 736 mmHg 90%
    11:00 +16°C° 0.1 mm 5 mps 736 mmHg 88%
    12:00 +16°C° 0.1 mm 6 mps 736 mmHg 86%
    13:00 +17°C° 0.5 mm 6 mps 736 mmHg 84%
    14:00 +18°C° 0.5 mm 7 mps 736 mmHg 82%
    15:00 +20°C° 0.5 mm 7 mps 737 mmHg 80%
    16:00 +18°C° 0.4 mm 7 mps 737 mmHg 81%
    17:00 +19°C° 0.4 mm 6 mps 737 mmHg 82%
    18:00 +19°C° 0.4 mm 6 mps 737 mmHg 82%
    19:00 +17°C° 0.1 mm 5 mps 737 mmHg 85%
    20:00 +16°C° 0.1 mm 5 mps 738 mmHg 88%
    21:00 +15°C° 0.1 mm 5 mps 738 mmHg 90%
    22:00 +15°C° 0 mm 4 mps 738 mmHg 91%
    23:00 +14°C° 0 mm 4 mps 738 mmHg 92%

    20 July, Saturday

    Time Temperature Precipitation Wind Pressure Humidity
    00:00 +14°C° 0 mm 4 mps 738 mmHg 93%
    01:00 +13°C° 0 mm 4 mps 739 mmHg 94%
    02:00 +13°C° 0 mm 4 mps 739 mmHg 94%
    03:00 +13°C° 0 mm 4 mps 739 mmHg 94%
    04:00 +13°C° 0 mm 5 mps 739 mmHg 94%
    05:00 +13°C° 0 mm 5 mps 739 mmHg 93%
    06:00 +13°C° 0 mm 5 mps 739 mmHg 92%
    07:00 +14°C° 0 mm 5 mps 739 mmHg 88%
    08:00 +16°C° 0 mm 5 mps 740 mmHg 84%
    09:00 +17°C° 0 mm 6 mps 740 mmHg 80%
    10:00 +19°C° 0.1 mm 6 mps 740 mmHg 77%
    11:00 +20°C° 0.1 mm 6 mps 740 mmHg 73%
    12:00 +21°C° 0.1 mm 6 mps 741 mmHg 70%
    13:00 +22°C° 0.3 mm 6 mps 741 mmHg 68%
    14:00 +22°C° 0.3 mm 6 mps 741 mmHg 66%
    15:00 +22°C° 0.3 mm 6 mps 741 mmHg 64%
    16:00 +22°C° 0.1 mm 6 mps 741 mmHg 67%
    17:00 +21°C° 0.1 mm 5 mps 741 mmHg 71%
    18:00 +21°C° 0.1 mm 5 mps 741 mmHg 75%
    19:00 +19°C° 0 mm 4 mps 741 mmHg 78%
    20:00 +18°C° 0 mm 4 mps 741 mmHg 82%
    21:00 +16°C° 0 mm 3 mps 741 mmHg 85%
    22:00 +16°C° 0 mm 3 mps 741 mmHg 87%
    23:00 +14°C° 0 mm 3 mps 742 mmHg 88%

    21 July, Sunday

    Time Temperature Precipitation Wind Pressure Humidity
    00:00 +14°C° 0 mm 3 mps 742 mmHg 89%
    01:00 +13°C° 0 mm 3 mps 742 mmHg 91%
    02:00 +13°C° 0 mm 3 mps 742 mmHg 92%
    03:00 +13°C° 0 mm 3 mps 742 mmHg 94%
    04:00 +13°C° 0 mm 3 mps 742 mmHg 94%
    05:00 +13°C° 0 mm 3 mps 742 mmHg 94%
    06:00 +13°C° 0 mm 4 mps 742 mmHg 93%
    07:00 +15°C° 0 mm 4 mps 742 mmHg 89%
    08:00 +17°C° 0 mm 4 mps 742 mmHg 85%
    09:00 +19°C° 0 mm 4 mps 742 mmHg 82%
    10:00 +20°C° 0 mm 4 mps 742 mmHg 78%
    11:00 +21°C° 0 mm 4 mps 742 mmHg 75%
    12:00 +22°C° 0 mm 4 mps 742 mmHg 72%
    13:00 +22°C° 0.3 mm 4 mps 742 mmHg 70%
    14:00 +23°C° 0.3 mm 4 mps 742 mmHg 69%
    15:00 +23°C° 0.3 mm 4 mps 742 mmHg 68%
    16:00 +23°C° 1 mm 4 mps 741 mmHg 71%
    17:00 +22°C° 1 mm 4 mps 741 mmHg 75%
    18:00 +21°C° 1 mm 3 mps 741 mmHg 79%
    19:00 +20°C° 0.1 mm 3 mps 741 mmHg 81%
    20:00 +19°C° 0.1 mm 3 mps 742 mmHg 84%
    21:00 +17°C° 0.1 mm 2 mps 742 mmHg 87%
    22:00 +17°C° 0 mm 2 mps 742 mmHg 88%
    23:00 +16°C° 0 mm 2 mps 742 mmHg 89%

    22 July, Monday

    Time Temperature Precipitation Wind Pressure Humidity
    00:00 +16°C° 0 mm 2 mps 742 mmHg 90%
    01:00 +15°C° 0.1 mm 2 mps 742 mmHg 92%
    02:00 +15°C° 0.1 mm 2 mps 742 mmHg 93%
    03:00 +14°C° 0.1 mm 2 mps 742 mmHg 94%
    04:00 +15°C° 0 mm 2 mps 742 mmHg 94%
    05:00 +15°C° 0 mm 2 mps 742 mmHg 94%
    06:00 +15°C° 0 mm 2 mps 742 mmHg 94%
    07:00 +16°C° 0 mm 2 mps 742 mmHg 89%
    08:00 +18°C° 0 mm 2 mps 742 mmHg 85%
    09:00 +19°C° 0 mm 2 mps 742 mmHg 80%
    10:00 +20°C° 0.3 mm 2 mps 742 mmHg 75%
    11:00 +21°C° 0.3 mm 2 mps 742 mmHg 71%
    12:00 +22°C° 0.3 mm 3 mps 742 mmHg 66%
    13:00 +24°C° 0.2 mm 3 mps 742 mmHg 65%
    14:00 +24°C° 0.2 mm 3 mps 742 mmHg 64%
    15:00 +24°C° 0.2 mm 3 mps 742 mmHg 63%
    16:00 +22°C° 0.7 mm 3 mps 742 mmHg 68%
    17:00 +22°C° 0.7 mm 3 mps 742 mmHg 72%
    18:00 +21°C° 0.7 mm 3 mps 742 mmHg 77%
    19:00 +20°C° 0.1 mm 3 mps 742 mmHg 79%
    20:00 +18°C° 0.1 mm 2 mps 742 mmHg 82%
    21:00 +17°C° 0.1 mm 2 mps 742 mmHg 85%
    22:00 +16°C° 0 mm 2 mps 742 mmHg 85%
    23:00 +15°C° 0 mm 2 mps 742 mmHg 86%
    Show more